Vorticity
6 6 6 6 7 7 7 7 7 7 7 7 7 7 7 7 6 6 6 5 5 5 5 5 5 5 5 5 6 6 6 5 5 5 5 5 5 5 5 5 5 5 5 5 5 5 5 5 6 6 6 6 6 6 6 7 7 8 9 9 9 9 9 9 9 9 8 8 8 8 8 8 8 8 8 8 8 8 8 8 8 8 8 8 8 8 8 8 8 8 8 8 9 9 9 9 8 8 8 9 9 9 9
7 7 7 7 7 7 7 7 7 8 8 8 8 7 7 7 6 6 6 6 5 5 6 6 6 6 6 6 6 6 6 6 6 6 6 6 5 5 5 5 5 5 5 5 5 5 5 5 6 6 6 6 6 5 5 6 6 7 8 8 8 8 8 9 9 9 8 9 8 8 8 8 7 7 7 7 8 8 8 8 8 8 8 8 8 8 8 8 8 8 8 8 8 9 9 9 9 9 9 9 9 9 9
7 7 7 7 7 7 7 8 8 8 8 8 8 7 7 7 7 6 6 6 6 6 6 6 6 6 6 6 6 6 6 6 6 6 6 6 6 6 6 6 6 6 5 5 5 5 5 5 6 6 6 6 5 5 5 5 5 6 7 7 7 7 7 8 8 8 8 8 8 8 8 8 8 7 7 7 7 7 7 7 8 8 8 8 8 8 8 8 8 8 8 8 8 8 9 9 9 9 9 9 8 8 8
7 7 7 7 7 7 7 8 8 8 8 7 7 7 7 7 7 6 6 6 6 6 6 6 6 6 6 6 6 6 6 6 6 6 6 6 6 6 6 6 6 6 6 6 5 5 6 6 6 6 6 6 5 5 5 4 5 5 6 6 6 6 6 6 7 7 7 8 8 8 8 8 8 8 8 7 7 7 7 7 7 7 7 7 7 7 8 8 8 8 8 7 7 8 8 8 8 8 8 8 8 8 8
7 7 7 7 7 7 7 7 7 7 7 7 7 7 7 7 6 6 6 6 6 6 6 6 6 6 6 6 6 6 6 6 6 6 6 6 6 6 6 6 6 6 6 6 6 6 6 6 6 6 6 6 6 5 5 4 4 5 5 6 6 5 5 5 6 6 6 7 7 7 8 8 8 8 8 8 8 7 7 7 7 6 6 6 6 6 7 7 7 7 7 7 7 7 7 7 7 7 7 8 8 8 8
7 7 7 7 7 7 7 7 7 6 6 6 6 6 6 6 6 6 6 6 5 5 5 5 5 5 5 6 6 6 6 6 6 6 6 6 6 6 6 6 6 6 6 6 6 6 6 6 6 6 6 6 6 6 5 5 5 5 5 5 6 6 6 5 5 5 5 6 6 6 7 7 7 8 8 8 8 8 8 8 7 7 7 6 6 6 6 6 6 6 7 7 7 7 7 7 7 7 7 7 7 7 7
7 7 7 7 7 7 6 6 6 6 6 6 6 6 6 6 6 5 5 5 5 5 5 5 5 5 5 5 5 5 5 6 6 6 6 6 6 6 6 6 6 6 6 6 6 6 7 7 7 7 7 7 6 6 6 6 6 6 5 5 6 6 6 6 6 5 6 5 5 5 6 6 6 6 7 7 7 8 8 8 8 8 7 7 7 6 6 6 6 6 6 6 6 6 6 6 6 6 6 6 6 6 6
6 6 6 6 6 6 6 6 6 6 6 6 6 6 6 5 5 5 5 5 5 5 5 5 5 5 5 5 5 5 5 5 5 6 6 6 6 6 6 6 6 6 6 6 7 7 7 7 7 7 7 7 7 7 6 7 7 7 6 6 6 6 6 6 6 6 6 6 6 6 5 5 5 6 6 6 6 7 7 7 8 8 8 8 7 7 7 6 6 6 6 6 6 5 5 6 6 6 6 6 6 6 5
6 6 6 6 6 6 5 5 5 5 6 6 6 6 6 5 5 5 5 5 5 5 5 5 5 5 6 6 6 6 6 6 6 6 6 6 6 6 6 6 6 6 7 7 7 7 7 7 8 8 8 7 7 7 7 7 8 8 7 7 7 7 7 7 7 7 7 7 7 7 6 6 6 6 6 5 5 6 6 6 7 7 7 7 7 7 7 7 7 7 6 6 6 6 5 5 5 5 5 5 5 5 5
6 6 6 5 5 5 5 5 5 5 6 6 6 6 6 6 5 5 5 6 6 6 6 6 6 6 6 6 6 6 6 6 6 6 6 6 6 6 6 6 6 6 7 7 7 7 7 7 7 8 8 8 7 7 7 8 8 8 8 8 7 7 7 7 7 7 7 7 7 7 7 7 7 7 6 6 6 6 6 6 6 6 6 6 7 7 7 7 7 7 7 7 7 6 6 6 6 5 5 5 5 5 5
6 5 5 5 5 5 5 5 5 5 6 6 6 6 6 6 6 6 6 6 6 6 6 6 6 6 6 6 6 6 6 6 6 6 6 6 6 6 6 6 6 6 6 7 7 7 7 7 7 7 7 7 7 7 7 7 7 7 7 7 7 7 7 7 7 7 7 7 8 8 7 7 7 7 7 7 7 6 6 6 6 6 6 6 6 6 6 7 7 7 7 7 7 7 7 6 6 6 6 6 6 5 5
5 5 5 5 5 5 5 5 5 6 6 6 6 6 6 6 6 6 6 6 6 6 6 6 6 6 6 6 6 6 6 6 6 6 6 6 6 6 6 6 6 6 6 7 7 7 7 7 7 7 7 7 6 6 6 6 6 6 6 6 6 6 6 6 6 6 7 7 7 7 7 7 7 7 7 7 7 7 7 7 6 6 6 6 6 6 6 6 6 6 7 7 7 7 7 7 7 7 7 7 6 6 6
5 5 5 5 5 5 5 5 6 6 6 6 6 6 6 6 6 6 6 6 6 6 6 6 6 6 6 6 6 6 6 6 6 6 6 6 6 6 6 7 7 7 7 7 6 6 6 6 6 6 6 6 6 5 5 5 5 5 5 5 5 5 5 5 5 6 6 6 6 6 6 6 7 7 7 7 7 7 7 7 7 7 7 7 6 6 6 6 6 6 6 6 6 6 7 7 7 7 7 7 7 7 7
5 5 5 5 5 6 6 6 6 6 6 7 6 6 6 6 6 6 6 6 6 6 5 5 5 5 5 5 5 5 6 6 6 6 6 6 6 6 7 7 7 7 7 6 6 6 6 6 6 6 6 6 6 5 5 5 5 5 5 5 5 5 5 5 5 5 5 5 5 6 6 6 6 6 6 6 7 7 7 7 7 7 7 7 7 7 7 7 7 7 6 6 6 6 6 7 7 7 7 7 7 7 7
5 5 5 5 6 6 6 6 6 6 6 6 6 6 6 6 5 5 5 5 5 5 5 5 5 5 5 5 6 6 6 6 6 6 6 6 6 7 7 7 7 6 6 6 6 6 6 6 6 6 6 6 6 6 5 5 5 5 5 5 6 5 5 6 6 6 6 6 6 6 6 6 6 6 6 6 6 6 6 7 7 7 7 7 7 7 7 7 7 7 7 7 7 7 7 7 7 7 6 6 6 6 6
5 5 5 6 6 6 6 6 6 6 6 6 6 6 5 5 5 4 4 4 4 4 5 5 5 5 5 6 6 6 6 7 7 7 7 7 7 7 7 7 6 6 6 6 6 6 6 6 6 6 6 6 6 6 6 6 6 6 6 6 6 6 6 6 6 6 6 6 7 7 7 7 7 7 7 7 7 7 7 7 7 7 7 7 7 7 7 7 8 8 8 8 8 8 7 7 7 7 7 7 7 7 6
5 5 5 6 6 6 6 6 6 6 5 5 5 5 5 5 4 4 4 4 4 4 5 5 5 6 6 6 6 7 7 8 8 8 8 8 8 7 7 7 6 6 6 6 6 6 6 6 6 6 6 6 6 6 6 7 7 7 7 7 7 7 7 7 7 7 7 7 8 8 8 8 8 8 8 8 8 7 7 7 7 7 7 8 7 7 8 8 8 8 8 8 8 8 8 8 8 8 8 8 8 7 7
5 5 5 6 6 6 6 5 5 5 5 5 5 5 4 4 4 4 4 4 4 5 5 6 6 6 6 7 7 7 8 8 9 9 9 8 8 7 7 7 6 6 6 6 6 6 6 6 6 6 6 6 6 7 7 7 7 7 8 8 8 8 8 8 8 8 8 8 8 8 8 8 9 9 9 9 8 8 8 8 8 8 8 8 8 8 8 8 8 8 8 8 8 8 8 8 8 8 8 9 9 8 8
5 5 5 5 6 6 5 5 5 5 5 5 5 4 4 4 4 4 4 4 5 5 6 6 6 7 7 7 8 8 8 8 8 8 8 8 7 7 7 6 6 7 7 7 7 7 7 7 7 7 7 7 7 7 8 8 8 8 8 8 8 8 8 8 8 8 8 8 9 9 9 9 9 9 9 9 9 9 9 8 8 8 8 8 8 8 8 8 8 8 9 9 9 9 9 9 9 9 9 9 9 9 9
5 5 5 5 6 6 5 5 5 5 4 4 4 4 4 4 4 4 5 5 6 6 6 7 7 8 8 8 8 8 8 8 8 7 7 7 7 7 7 7 7 7 7 7 7 8 8 8 8 8 8 8 8 8 8 8 8 8 8 8 8 8 8 8 8 8 8 8 8 8 8 8 8 8 8 8 8 8 8 8 8 8 8 8 8 8 8 8 8 8 8 9 9 9 8 8 9 9 9 9 9 9 9
5 5 5 6 5 5 5 5 4 4 4 4 4 4 4 5 5 5 5 6 6 7 7 8 8 9 9 9 9 9 8 8 7 7 7 7 7 8 8 8 8 8 8 8 8 9 9 9 9 9 8 8 8 9 9 9 8 8 8 8 8 8 8 7 7 7 7 7 7 7 7 7 7 7 7 8 8 8 8 8 8 8 8 8 8 8 8 8 8 8 8 8 8 8 8 8 8 8 8 8 8 8 9
5 5 6 6 5 5 4 4 4 4 4 4 4 4 5 5 5 6 6 7 7 8 9 9 10 10 9 9 9 8 8 8 8 8 8 8 9 9 9 9 9 9 9 9 9 9 9 9 9 9 9 8 8 9 9 9 9 8 8 8 7 7 7 7 7 7 7 7 7 7 7 7 7 7 7 7 7 7 7 7 7 8 8 8 8 8 8 8 8 8 8 8 8 8 8 8 8 8 8 8 8 8 8
5 5 6 5 5 5 4 4 4 4 4 4 4 4 5 5 6 6 7 8 8 9 9 10 10 10 9 9 9 8 8 8 9 9 9 9 10 10 10 10 10 9 9 9 9 9 9 9 8 8 8 8 8 8 8 8 8 8 8 7 7 7 7 7 7 7 7 6 6 6 6 6 6 7 7 7 7 7 7 7 7 7 7 7 7 7 7 8 8 8 8 8 8 8 8 8 8 8 8 8 8 8 8
6 6 6 5 5 4 4 4 4 4 4 4 4 4 5 6 6 7 8 8 9 9 9 9 9 9 9 9 9 9 9 9 10 10 10 10 10 10 10 9 9 9 9 9 8 8 8 8 8 8 7 7 7 7 8 8 8 7 7 7 7 7 7 7 7 7 6 6 6 6 6 6 6 6 6 6 6 7 7 7 7 7 7 7 7 7 7 7 8 8 8 8 8 8 8 8 8 8 8 8 8 8 8
6 6 6 5 4 4 4 4 4 4 4 4 4 4 5 6 7 7 8 8 9 9 9 9 8 8 9 9 9 9 9 10 10 10 10 9 9 9 8 8 8 8 8 8 7 7 7 7 7 7 6 6 7 7 7 7 7 7 7 6 6 6 6 7 7 6 6 6 6 6 6 6 6 6 6 6 6 6 6 6 6 7 7 7 7 7 7 7 7 7 7 7 7 8 8 8 8 8 8 8 8 8 8
7 6 5 5 4 4 4 4 4 4 4 4 4 4 5 6 7 7 8 8 8 8 9 9 9 9 9 9 9 9 9 9 9 9 9 8 8 8 7 7 7 7 7 6 6 6 6 6 6 6 6 6 6 6 6 6 6 6 6 6 6 6 6 6 6 6 6 6 6 6 6 6 6 6 5 6 6 6 6 6 6 6 6 6 6 7 7 7 7 7 7 7 7 7 7 7 8 8 8 8 8 8 8
7 6 5 5 4 4 4 4 4 4 4 4 4 4 5 6 7 8 8 8 9 8 8 9 9 9 9 9 9 8 8 8 8 8 8 7 7 7 7 6 6 6 6 6 5 5 5 5 5 5 5 5 5 5 5 5 5 5 5 5 5 5 5 5 5 6 6 6 6 6 6 6 5 5 5 5 5 5 5 5 6 6 6 6 6 6 6 6 7 7 7 7 7 7 7 7 8 8 8 8 8 8 8
7 6 5 5 5 5 5 4 4 4 4 4 4 4 6 6 7 8 9 9 9 8 8 8 8 8 8 8 8 8 7 7 7 7 7 7 6 6 6 6 6 5 5 5 5 5 5 5 5 5 4 5 4 4 4 4 4 4 4 4 4 4 5 5 5 5 5 5 5 5 5 5 5 5 5 6 6 6 6 6 6 6 6 6 6 6 6 6 6 7 7 7 7 7 7 7 7 8 8 8 8 8 8
6 5 5 5 5 5 4 4 4 4 4 3 3 5 7 8 8 8 9 8 8 8 8 8 8 8 8 7 7 7 7 7 7 6 6 6 6 6 6 6 6 6 5 5 5 5 5 5 5 5 5 5 5 5 4 4 4 4 4 4 4 4 4 4 4 5 5 5 5 5 5 5 6 6 6 6 6 6 6 6 6 6 6 6 6 6 7 7 7 7 7 7 7 7 7 7 7 7 8 8 8 8 8
5 5 4 4 4 4 4 4 4 4 3 3 4 6 7 8 9 8 8 7 7 7 7 7 7 7 7 7 7 7 6 6 6 6 6 6 6 6 6 6 6 6 7 7 6 6 6 6 6 6 6 6 6 6 6 5 5 5 5 4 4 4 4 4 4 5 5 5 5 5 5 6 6 6 6 6 6 6 6 6 7 7 7 7 7 7 7 7 7 7 7 7 7 7 7 7 7 7 7 7 8 8 7
5 5 4 4 4 4 4 3 3 3 3 4 5 6 7 8 9 9 7 6 6 7 7 7 7 7 7 7 7 6 6 6 6 6 6 6 7 7 7 7 7 8 8 8 8 8 9 9 9 9 9 8 8 8 8 8 7 7 7 6 6 6 6 5 5 5 5 5 5 5 5 6 6 6 6 6 6 6 7 7 7 7 7 7 7 7 7 7 7 7 7 7 7 7 8 8 8 8 7 7 7 7 7
5 5 4 4 4 4 3 3 3 3 3 4 5 7 7 8 8 7 7 6 6 7 7 7 7 7 7 7 6 6 6 6 6 6 6 7 7 8 8 8 9 9 10 10 10 11 11 11 11 11 11 11 11 11 11 10 10 10 9 9 9 8 8 7 7 7 6 6 6 6 6 6 6 6 6 6 7 7 7 7 7 7 7 7 8 8 8 8 8 8 8 8 8 8 8 8 8 8 8 8 8 8 7
5 5 4 4 4 4 3 3 3 3 4 5 6 7 7 8 7 7 6 6 6 7 7 7 7 7 7 7 6 6 6 6 7 7 7 7 8 8 9 10 10 11 11 12 13 13 13 13 13 13 13 13 13 13 13 13 12 12 12 11 11 11 10 10 10 9 9 8 8 8 7 7 7 7 7 7 7 7 7 7 7 7 7 7 8 8 8 8 8 8 8 8 8 8 8 8 8 8 8 8 8 8 8
5 5 5 4 4 4 4 4 3 3 4 5 6 7 7 7 7 7 6 6 6 7 7 7 7 7 6 6 6 6 6 7 7 7 7 8 9 9 9 10 11 11 12 12 13 13 13 13 14 14 13 14 13 13 13 13 13 13 13 13 13 13 12 12 12 11 11 11 10 10 9 9 9 8 8 8 8 8 8 8 8 8 8 8 8 8 8 8 8 8 8 8 8 8 8 8 8 8 8 8 8 8 8
5 5 5 4 4 4 4 3 3 3 5 6 6 7 7 7 7 6 6 6 6 6 7 7 6 6 6 6 6 6 7 7 7 7 8 8 9 9 10 10 10 10 10 11 11 11 11 11 11 12 12 12 12 13 13 13 13 13 13 13 13 13 13 13 13 13 12 12 12 11 11 11 10 10 10 9 9 9 9 9 9 9 9 9 9 8 8 8 8 8 8 8 9 9 9 9 8 8 8 8 8 8 8
5 5 5 4 4 4 4 3 3 4 5 6 6 6 6 6 6 6 6 6 6 6 6 6 6 6 5 6 6 7 7 7 7 8 8 8 8 8 8 8 8 8 8 8 8 8 8 8 8 8 9 10 10 11 11 11 11 12 12 12 12 12 12 13 13 12 12 12 12 12 12 12 11 11 11 11 10 10 10 10 10 10 10 10 9 9 9 9 9 9 9 9 9 9 9 9 8 8 8 8 8 8 8
5 5 4 4 4 4 3 3 4 4 5 6 6 6 6 6 6 6 6 6 6 6 6 6 6 6 6 6 6 7 6 6 6 7 7 7 7 7 7 6 6 5 6 6 5 5 5 6 6 6 7 7 8 9 9 9 10 10 10 10 10 11 11 11 11 11 11 11 11 11 11 11 11 11 11 11 11 10 10 10 10 10 10 10 10 10 10 10 9 9 9 9 9 9 9 8 8 8 8 8 8 8 7
5 4 4 4 4 3 3 3 4 5 5 5 6 6 6 6 6 6 6 6 6 6 5 6 6 6 6 6 6 6 5 5 6 6 6 6 6 6 5 4 4 4 4 4 4 4 5 5 5 5 6 7 7 8 8 8 9 9 9 9 9 9 9 10 10 10 10 10 10 10 10 11 11 11 11 11 11 11 10 10 10 10 9 9 9 9 9 9 9 9 9 9 9 8 8 8 8 7 7 7 7 7 7
5 4 4 4 3 3 4 3 4 5 5 5 6 6 6 6 6 7 7 7 6 6 6 6 6 6 6 6 6 5 5 5 5 5 5 4 4 4 3 3 3 3 4 4 4 4 5 5 5 6 6 7 7 7 8 8 8 8 8 8 8 8 8 9 9 9 9 9 9 10 10 10 10 10 11 11 10 10 10 10 10 10 10 9 9 9 9 9 9 9 8 8 8 7 7 7 7 6 6 6 6 6 6
5 4 4 3 3 3 3 4 5 5 5 6 6 6 6 6 6 6 7 6 6 6 6 5 5 5 6 5 5 5 5 5 5 5 4 4 3 3 2 2 3 3 3 3 4 4 5 5 6 6 7 7 7 7 8 8 8 8 8 8 8 8 8 8 8 8 9 9 9 9 9 9 10 10 10 10 10 10 10 10 10 10 10 10 9 9 9 9 8 8 8 7 7 7 6 6 6 6 5 5 5 5 5
5 4 4 4 3 3 3 4 5 5 5 6 6 6 6 7 7 6 6 6 6 6 6 6 6 5 4 4 4 4 4 4 4 4 3 3 3 2 2 2 3 3 3 3 4 4 5 6 6 7 7 7 7 7 8 8 8 9 9 9 9 8 8 8 8 8 8 8 9 9 9 9 9 9 9 9 9 9 10 10 10 10 10 9 9 9 9 8 8 8 7 7 6 6 6 6 5 5 5 5 4 4 4
5 4 4 4 3 3 4 5 5 5 6 6 6 6 6 7 7 6 6 6 6 6 6 6 6 5 4 4 4 4 3 3 3 3 2 2 2 2 2 2 2 3 3 3 4 5 5 6 7 7 7 6 7 7 7 7 8 9 9 9 9 9 8 8 8 8 8 8 8 8 8 8 8 8 8 9 9 9 9 9 9 9 9 9 8 8 8 7 7 7 6 6 6 5 5 5 5 4 4 4 4 4 4
5 4 4 4 3 3 4 5 5 5 6 6 6 6 7 7 6 6 6 6 6 6 6 6 5 4 4 3 3 3 3 2 2 3 2 2 2 2 2 2 2 2 3 3 4 5 6 7 7 8 7 7 7 7 7 7 8 9 10 10 10 9 9 9 8 8 8 8 8 8 8 8 8 8 8 8 8 8 8 9 8 8 8 8 7 7 6 6 6 5 5 5 5 4 4 4 4 4 4 4 4 4 4
5 5 4 4 3 3 4 5 5 5 6 6 6 7 7 6 6 6 7 7 6 6 5 5 4 4 3 3 3 3 3 2 2 2 2 2 2 1 1 2 2 2 2 4 5 6 6 7 8 8 8 9 8 8 8 8 8 9 10 10 10 10 10 9 9 8 8 8 8 8 8 8 8 8 8 8 8 8 8 8 7 7 7 6 6 6 5 4 4 4 4 4 4 4 4 4 4 4 4 5 5 5 5
6 5 4 4 3 3 4 5 5 5 6 6 7 7 7 6 6 7 7 7 7 6 4 4 4 4 3 3 3 3 3 2 2 1 1 1 1 1 1 2 2 2 3 4 5 6 7 7 8 9 10 10 10 10 9 9 9 9 9 10 11 11 11 10 9 9 8 8 8 8 7 7 8 8 8 8 8 8 7 7 7 6 6 5 5 4 4 3 3 3 3 3 3 4 4 4 4 5 5 6 6 6 7
6 5 4 4 4 4 4 5 5 6 6 6 7 7 6 6 6 6 6 6 6 6 5 3 3 3 4 3 3 2 3 2 2 1 1 1 1 1 1 1 1 2 3 4 5 6 7 7 8 10 10 11 11 11 10 10 9 9 9 10 10 11 11 11 10 10 9 9 8 8 8 7 7 7 7 7 7 7 7 7 6 6 5 5 4 4 3 3 3 3 3 3 4 4 4 5 5 6 6 7 7 7 8
6 5 5 4 4 3 4 5 6 6 6 6 7 7 6 6 6 6 6 6 6 6 5 3 2 2 3 3 3 3 2 2 2 1 1 1 1 1 0 0 1 2 3 3 4 6 7 8 9 10 11 12 12 12 11 10 9 9 9 9 9 10 11 11 11 11 10 9 9 9 8 8 8 7 7 7 7 6 6 6 6 5 5 4 4 4 3 3 3 3 3 4 4 5 5 6 6 6 7 7 8 8 9
6 5 5 4 3 3 3 5 6 6 7 7 7 7 6 6 6 6 6 6 5 5 4 3 2 2 1 2 3 3 2 2 2 1 0 0 1 1 0 -1 -1 1 3 4 5 6 7 8 9 10 11 12 12 12 12 11 10 9 8 8 9 10 10 11 11 11 11 10 10 9 9 9 8 8 7 7 7 6 6 5 5 4 4 4 4 4 4 4 4 4 4 4 5 5 6 6 7 7 8 8 9 9 9
6 6 5 4 3 3 3 5 6 7 7 7 7 6 6 5 6 6 6 6 5 4 4 4 3 2 1 1 1 2 2 2 2 1 1 0 -0 -1 -1 -1 -0 2 4 6 6 7 8 9 9 10 11 12 12 12 12 11 10 9 9 8 9 9 10 11 11 11 11 11 10 10 9 9 8 8 8 7 7 6 6 5 5 4 4 4 4 4 4 4 5 5 5 5 6 6 6 7 8 8 9 9 9 9 10
6 5 5 4 4 3 4 5 6 7 7 7 6 6 6 6 6 6 6 6 5 4 3 4 4 3 2 1 1 1 2 2 1 1 2 1 -1 -3 -4 -2 1 3 5 6 7 8 8 9 10 10 11 12 12 12 12 11 10 10 9 9 9 9 9 10 10 10 11 11 11 10 10 9 8 8 8 8 7 7 7 6 6 5 5 5 5 5 5 5 5 5 5 6 6 6 7 7 8 8 9 9 10 10 10
7 6 5 4 4 4 4 5 6 6 6 5 6 6 7 7 7 7 6 6 5 4 3 2 3 3 4 2 1 0 1 1 1 1 1 0 -1 -3 -5 -4 -1 3 6 7 9 9 9 9 10 10 11 11 11 11 11 11 11 10 9 9 8 8 9 9 9 10 10 10 10 10 10 10 9 8 8 8 8 8 7 7 7 7 7 6 6 6 6 6 5 6 6 6 6 7 7 7 8 8 9 9 9 10 10
7 6 5 4 4 4 4 5 6 6 5 4 5 7 8 7 7 7 7 6 5 4 4 2 1 1 3 3 1 0 1 1 1 2 1 -1 -3 -4 -4 -4 -0 4 6 7 9 10 10 10 10 10 10 10 10 10 10 11 11 10 9 9 8 8 8 9 9 9 9 10 10 10 10 9 9 9 8 8 8 8 8 8 8 8 8 7 7 7 7 7 7 7 6 7 7 7 7 7 8 8 8 8 9 9 9
7 6 6 5 4 4 3 5 6 6 5 5 6 6 7 7 7 6 6 6 5 4 4 3 2 0 -0 1 1 1 2 1 2 2 1 -2 -5 -6 -4 0 3 5 3 4 7 10 13 12 11 10 9 8 8 9 10 10 11 10 9 9 9 8 8 8 8 9 9 9 9 9 9 9 9 9 9 8 8 8 8 8 8 8 8 8 8 8 8 8 8 8 8 8 8 8 8 8 8 8 8 8 8 8 9
8 7 6 5 4 3 3 5 6 7 6 6 6 6 6 6 6 6 6 6 5 4 3 3 2 2 0 1 1 1 0 1 2 1 1 -2 -5 -7 -5 1 3 2 1 3 5 9 12 11 11 10 8 7 6 7 9 10 10 10 10 9 8 8 8 8 8 9 9 9 9 8 8 8 8 8 9 8 8 8 8 7 7 7 8 8 8 8 8 8 9 9 9 9 9 9 9 9 9 9 9 9 9 9 9
9 8 6 5 4 4 4 5 6 7 6 6 6 6 6 6 6 6 6 5 4 3 3 2 2 2 1 0 0 1 1 1 1 1 -0 -2 -3 -4 -5 -4 -2 0 3 9 11 10 9 11 12 12 9 7 6 7 8 9 10 10 10 9 8 8 7 7 8 8 8 8 8 8 8 8 8 8 8 8 8 8 7 7 7 7 7 7 8 8 8 9 9 9 10 10 10 10 10 10 10 10 10 10 10 10 10
9 8 7 6 5 4 4 5 6 7 6 6 6 7 7 7 6 5 5 5 4 4 3 2 2 2 2 0 -0 0 1 1 1 1 -0 -3 -3 -3 -3 -4 -3 -2 0 6 8 9 8 11 13 14 13 9 7 6 7 8 9 9 9 9 8 7 7 7 7 7 7 8 8 8 7 7 7 7 7 7 7 7 7 7 7 7 7 7 7 8 8 8 9 9 10 10 10 10 10 10 10 10 10 10 11 11 10
10 8 7 6 5 4 4 5 6 7 6 6 6 7 6 6 5 5 6 5 5 4 3 2 1 1 2 2 1 0 1 1 1 1 0 -3 -5 -4 -1 2 0 -2 -4 -5 -3 1 6 10 12 14 16 11 8 6 6 7 8 9 9 9 8 7 7 7 7 7 7 7 7 7 7 7 7 7 7 7 7 7 7 7 7 7 7 7 7 7 7 8 8 8 9 9 9 10 10 10 10 10 11 11 11 11 11
11 9 7 6 5 5 4 5 6 7 7 6 6 6 5 6 6 6 6 6 5 4 3 2 2 1 1 2 2 1 1 1 1 0 -0 -3 -4 -4 -2 -1 -1 -1 0 -3 -4 -2 2 8 11 13 17 14 10 6 5 6 8 9 9 9 8 8 7 7 7 7 7 7 7 7 7 7 6 6 6 7 7 7 7 8 8 8 8 7 7 7 7 6 6 6 6 7 7 8 8 9 9 10 10 10 10 10 10
12 10 8 7 6 5 5 5 6 7 7 6 5 5 5 7 7 7 6 5 4 3 3 3 2 2 0 1 1 1 1 1 1 -0 -3 -3 -3 -3 -4 -5 -5 -3 -1 -0 0 1 1 6 9 13 16 15 12 8 5 6 8 9 9 9 8 8 8 8 7 7 7 7 7 6 6 6 6 6 6 6 7 7 7 8 8 8 8 8 7 7 6 6 5 5 4 4 5 5 6 7 7 8 9 9 9 9 9
12 10 8 7 6 6 5 5 6 7 7 6 6 6 7 7 6 6 5 5 5 4 4 3 2 1 1 1 1 1 1 1 1 0 -2 -3 -4 -3 -4 -5 -5 -5 -5 -3 -1 1 2 3 7 12 16 14 12 10 6 7 8 9 10 9 9 8 8 8 7 7 7 7 7 6 6 6 6 6 6 6 7 7 8 8 8 8 8 8 8 7 7 6 5 5 4 4 4 4 4 5 6 6 7 7 7 8 8
12 10 8 7 7 6 5 5 6 6 7 6 7 7 7 6 5 5 5 5 5 5 4 3 2 2 2 2 2 2 1 1 1 0 -0 -3 -4 -5 -5 -4 -4 -5 -5 -4 -2 -0 1 3 6 11 16 14 12 10 8 7 8 10 10 10 9 8 8 8 7 7 7 7 7 6 6 6 6 6 6 6 7 7 8 8 8 9 8 8 8 7 7 6 6 6 5 5 5 5 5 6 6 6 6 6 7 7 7
Height
3172 3172 3172 3172 3172 3171 3171 3171 3171 3171 3171 3171 3171 3170 3170 3170 3170 3170 3169 3169 3169 3169 3168 3168 3168 3168 3168 3167 3167 3167 3167 3166 3166 3166 3166 3165 3165 3165 3165 3164 3164 3164 3163 3163 3163 3162 3162 3162 3162 3161 3161 3161 3161 3160 3160 3160 3159 3159 3159 3159 3159 3158 3158 3158 3158 3157 3157 3157 3156 3156 3156 3156 3155 3155 3155 3155 3154 3154 3154 3154 3154 3153 3153 3153 3153 3153 3152 3152 3152 3152 3152 3152 3152 3152 3152 3152 3151 3151 3151 3151 3151 3151 3151
3172 3172 3171 3171 3171 3171 3171 3171 3171 3171 3171 3171 3170 3170 3170 3170 3170 3169 3169 3169 3169 3168 3168 3168 3168 3168 3167 3167 3167 3167 3166 3166 3166 3166 3165 3165 3165 3165 3164 3164 3164 3163 3163 3163 3162 3162 3162 3161 3161 3161 3161 3161 3160 3160 3159 3159 3159 3159 3159 3159 3158 3158 3157 3157 3157 3157 3156 3156 3156 3156 3155 3155 3155 3154 3154 3154 3154 3153 3153 3153 3153 3152 3152 3152 3152 3152 3152 3151 3151 3151 3151 3151 3151 3151 3151 3151 3151 3151 3151 3151 3150 3150 3150
3172 3171 3171 3171 3171 3171 3171 3171 3171 3171 3171 3170 3170 3170 3170 3170 3169 3169 3168 3169 3168 3168 3168 3168 3168 3167 3167 3167 3167 3166 3166 3166 3166 3165 3165 3165 3165 3164 3164 3164 3163 3163 3163 3162 3162 3161 3161 3161 3161 3161 3160 3160 3160 3159 3159 3158 3158 3158 3158 3158 3158 3157 3157 3157 3156 3156 3156 3156 3156 3155 3155 3154 3154 3154 3154 3153 3153 3153 3152 3152 3152 3152 3152 3151 3151 3151 3151 3151 3151 3151 3151 3151 3150 3150 3150 3150 3150 3150 3150 3150 3150 3150 3149
3171 3171 3171 3171 3171 3171 3171 3171 3171 3171 3170 3170 3170 3170 3170 3169 3169 3169 3168 3168 3168 3168 3168 3168 3167 3167 3167 3166 3166 3166 3166 3166 3165 3165 3165 3165 3164 3164 3164 3163 3163 3163 3162 3162 3161 3161 3161 3161 3160 3160 3160 3160 3159 3159 3158 3158 3158 3158 3158 3158 3157 3157 3156 3156 3156 3156 3156 3155 3155 3155 3154 3154 3154 3153 3153 3153 3152 3152 3152 3151 3151 3151 3151 3151 3151 3151 3151 3150 3150 3150 3150 3150 3149 3149 3149 3149 3149 3148 3149 3149 3149 3149 3148
3171 3171 3171 3171 3171 3171 3171 3171 3171 3170 3170 3170 3170 3170 3169 3169 3169 3169 3168 3168 3168 3168 3167 3167 3167 3167 3166 3166 3166 3166 3166 3165 3165 3165 3164 3164 3164 3164 3163 3163 3163 3162 3162 3162 3161 3161 3161 3160 3160 3160 3159 3159 3159 3158 3158 3157 3157 3157 3157 3157 3156 3156 3156 3156 3156 3155 3155 3155 3155 3154 3154 3153 3153 3153 3153 3152 3152 3152 3151 3151 3151 3151 3150 3150 3150 3150 3150 3149 3149 3149 3149 3149 3149 3149 3149 3148 3148 3148 3148 3148 3148 3148 3148
3171 3171 3171 3171 3171 3171 3171 3171 3170 3170 3170 3170 3170 3170 3169 3169 3169 3168 3168 3168 3167 3167 3167 3167 3167 3166 3166 3166 3166 3166 3165 3165 3165 3164 3164 3164 3163 3163 3163 3163 3162 3162 3161 3161 3161 3161 3160 3160 3160 3159 3159 3158 3158 3158 3157 3157 3156 3156 3156 3156 3156 3156 3156 3155 3155 3155 3154 3154 3154 3154 3153 3153 3153 3152 3152 3152 3151 3151 3151 3151 3150 3150 3149 3149 3149 3149 3149 3149 3148 3148 3148 3148 3148 3148 3148 3148 3147 3147 3147 3147 3147 3147 3147
3171 3171 3171 3171 3171 3171 3171 3170 3170 3170 3170 3170 3170 3169 3169 3169 3169 3168 3168 3167 3167 3167 3167 3166 3166 3166 3166 3166 3165 3165 3165 3164 3164 3164 3164 3163 3163 3163 3162 3162 3162 3161 3161 3161 3161 3160 3160 3160 3159 3159 3158 3158 3158 3157 3157 3156 3156 3156 3155 3155 3155 3155 3155 3154 3154 3154 3154 3153 3153 3153 3153 3152 3152 3152 3151 3151 3151 3151 3150 3150 3150 3150 3149 3149 3148 3148 3148 3148 3147 3147 3147 3147 3147 3147 3147 3147 3146 3146 3146 3146 3146 3146 3146
3171 3171 3171 3171 3171 3170 3170 3170 3170 3170 3170 3170 3170 3169 3169 3169 3168 3168 3168 3167 3167 3167 3166 3166 3166 3166 3165 3165 3165 3165 3164 3164 3164 3163 3163 3163 3162 3162 3162 3161 3161 3161 3161 3160 3160 3160 3159 3159 3159 3158 3158 3157 3157 3157 3156 3156 3156 3155 3155 3155 3154 3154 3154 3154 3153 3153 3153 3153 3152 3152 3152 3151 3151 3151 3151 3150 3150 3150 3150 3149 3149 3149 3149 3148 3148 3147 3147 3147 3147 3146 3146 3146 3146 3146 3146 3146 3146 3146 3146 3145 3145 3145 3145
3170 3170 3170 3170 3170 3170 3170 3170 3170 3169 3169 3169 3169 3169 3169 3168 3168 3168 3167 3167 3167 3166 3166 3166 3166 3165 3165 3165 3164 3164 3164 3163 3163 3163 3162 3162 3162 3161 3161 3161 3161 3160 3160 3160 3160 3159 3159 3159 3158 3158 3157 3157 3156 3156 3156 3156 3155 3155 3155 3154 3154 3153 3153 3153 3152 3152 3152 3152 3151 3151 3151 3151 3151 3150 3150 3150 3149 3149 3149 3149 3148 3148 3148 3147 3147 3147 3146 3146 3146 3146 3146 3146 3145 3145 3145 3145 3144 3144 3144 3144 3144 3144 3144
3170 3170 3170 3170 3170 3169 3169 3169 3169 3169 3169 3169 3169 3169 3168 3168 3168 3167 3167 3167 3166 3166 3166 3166 3165 3165 3165 3164 3164 3164 3163 3163 3163 3162 3162 3161 3161 3161 3161 3160 3160 3160 3159 3159 3159 3159 3158 3158 3158 3157 3157 3156 3156 3156 3156 3155 3155 3155 3154 3154 3153 3153 3153 3152 3152 3151 3151 3151 3151 3150 3150 3150 3150 3149 3149 3149 3148 3148 3148 3148 3147 3147 3147 3147 3146 3146 3146 3146 3145 3145 3145 3145 3145 3144 3144 3144 3144 3144 3143 3143 3143 3143 3143
3169 3169 3169 3169 3169 3169 3169 3169 3169 3169 3169 3169 3168 3168 3168 3168 3167 3167 3167 3166 3166 3166 3166 3165 3165 3164 3164 3164 3163 3163 3163 3162 3162 3162 3161 3161 3161 3161 3160 3160 3160 3159 3159 3158 3158 3158 3157 3157 3157 3156 3156 3156 3156 3155 3155 3155 3154 3154 3154 3153 3153 3152 3152 3152 3151 3151 3151 3150 3150 3150 3149 3149 3148 3148 3148 3148 3147 3147 3147 3147 3146 3146 3146 3146 3146 3145 3145 3145 3145 3144 3144 3144 3144 3143 3143 3143 3143 3143 3142 3142 3142 3142 3142
3169 3169 3169 3169 3169 3168 3168 3168 3168 3168 3168 3168 3168 3168 3167 3167 3167 3167 3166 3166 3166 3166 3165 3165 3164 3164 3164 3163 3163 3163 3162 3162 3162 3161 3161 3161 3160 3160 3160 3159 3159 3159 3158 3158 3158 3157 3157 3156 3156 3156 3156 3155 3155 3155 3154 3154 3154 3153 3153 3153 3152 3152 3152 3151 3151 3151 3150 3150 3149 3149 3148 3148 3148 3147 3147 3146 3146 3146 3146 3146 3145 3145 3145 3145 3145 3144 3144 3144 3144 3143 3143 3143 3143 3142 3142 3142 3142 3141 3141 3141 3141 3141 3141
3168 3168 3168 3168 3168 3168 3168 3168 3168 3168 3168 3167 3167 3167 3167 3167 3166 3166 3166 3166 3165 3165 3165 3164 3164 3163 3163 3163 3162 3162 3162 3161 3161 3161 3161 3160 3160 3160 3159 3159 3158 3158 3158 3157 3157 3157 3156 3156 3156 3155 3155 3155 3154 3154 3153 3153 3153 3153 3152 3152 3152 3151 3151 3151 3150 3150 3150 3149 3149 3148 3148 3147 3147 3146 3146 3146 3146 3145 3145 3145 3144 3144 3144 3144 3143 3143 3143 3143 3143 3142 3142 3142 3142 3141 3141 3141 3141 3141 3141 3141 3140 3140 3140
3168 3168 3167 3167 3167 3167 3167 3167 3167 3167 3167 3167 3167 3167 3166 3166 3166 3166 3166 3165 3165 3165 3164 3164 3163 3163 3163 3162 3162 3162 3161 3161 3161 3160 3160 3160 3159 3159 3159 3158 3158 3157 3157 3157 3156 3156 3156 3156 3155 3155 3154 3154 3153 3153 3153 3152 3152 3152 3151 3151 3151 3151 3150 3150 3150 3149 3149 3148 3148 3148 3147 3147 3146 3146 3146 3145 3145 3144 3144 3144 3143 3143 3143 3142 3142 3142 3142 3142 3141 3141 3141 3141 3141 3141 3140 3140 3140 3140 3139 3139 3139 3138 3139
3167 3167 3167 3167 3167 3167 3167 3167 3167 3167 3166 3166 3166 3166 3166 3166 3166 3165 3165 3165 3164 3164 3164 3163 3163 3162 3162 3162 3161 3161 3161 3160 3160 3160 3159 3159 3159 3158 3158 3157 3157 3157 3156 3156 3156 3156 3155 3155 3154 3154 3154 3153 3153 3152 3152 3152 3151 3151 3151 3150 3150 3150 3149 3149 3149 3148 3148 3147 3147 3147 3146 3146 3146 3145 3145 3144 3144 3144 3143 3143 3142 3142 3142 3141 3141 3141 3141 3141 3140 3140 3140 3140 3139 3139 3139 3139 3139 3138 3138 3138 3138 3138 3137
3167 3166 3166 3167 3167 3167 3166 3166 3166 3166 3166 3166 3166 3166 3166 3165 3165 3165 3165 3164 3164 3164 3163 3163 3162 3162 3162 3161 3161 3161 3160 3160 3159 3159 3159 3158 3158 3157 3157 3157 3156 3156 3156 3156 3155 3155 3155 3154 3154 3153 3153 3152 3152 3152 3151 3151 3151 3150 3150 3149 3149 3149 3148 3148 3148 3147 3147 3146 3146 3146 3146 3145 3145 3144 3144 3144 3143 3143 3142 3142 3141 3141 3141 3141 3140 3140 3140 3139 3139 3139 3139 3138 3138 3138 3138 3138 3137 3137 3137 3137 3136 3136 3136
3166 3166 3166 3166 3166 3166 3166 3166 3166 3166 3166 3166 3166 3165 3165 3165 3165 3164 3164 3164 3163 3163 3163 3162 3162 3161 3161 3161 3161 3160 3160 3159 3159 3158 3158 3157 3157 3157 3156 3156 3156 3156 3155 3155 3155 3154 3154 3154 3153 3153 3152 3152 3151 3151 3151 3151 3150 3150 3149 3149 3148 3148 3147 3147 3147 3146 3146 3146 3145 3145 3145 3144 3144 3143 3143 3143 3142 3142 3141 3141 3141 3141 3140 3140 3139 3139 3139 3138 3138 3138 3137 3137 3137 3137 3137 3136 3136 3136 3136 3136 3135 3135 3135
3166 3166 3166 3166 3166 3166 3166 3166 3166 3165 3165 3165 3165 3165 3165 3164 3164 3164 3163 3163 3163 3162 3162 3162 3161 3161 3161 3160 3160 3159 3159 3159 3158 3158 3157 3157 3157 3156 3156 3156 3155 3155 3155 3154 3154 3154 3153 3153 3153 3152 3152 3151 3151 3151 3150 3150 3149 3149 3148 3148 3147 3147 3146 3146 3146 3145 3145 3145 3144 3144 3143 3143 3143 3142 3142 3142 3141 3141 3141 3140 3140 3140 3139 3139 3138 3138 3138 3137 3137 3137 3136 3136 3136 3136 3136 3135 3135 3135 3134 3134 3134 3134 3133
3165 3165 3165 3165 3165 3165 3165 3165 3165 3165 3165 3165 3164 3164 3164 3164 3163 3163 3163 3162 3162 3162 3161 3161 3161 3160 3160 3160 3159 3159 3158 3158 3158 3157 3157 3157 3156 3156 3156 3155 3155 3155 3154 3154 3153 3153 3153 3152 3152 3152 3151 3151 3150 3150 3149 3149 3149 3148 3148 3147 3147 3146 3146 3145 3145 3145 3144 3144 3143 3143 3142 3142 3142 3141 3141 3141 3140 3140 3140 3139 3139 3138 3138 3138 3137 3137 3137 3136 3136 3136 3136 3135 3135 3134 3134 3134 3134 3133 3133 3133 3133 3132 3132
3165 3165 3165 3165 3165 3165 3165 3165 3165 3164 3164 3164 3164 3164 3163 3163 3163 3162 3162 3162 3161 3161 3161 3161 3160 3160 3159 3159 3158 3158 3158 3158 3157 3157 3157 3156 3156 3156 3155 3155 3155 3154 3154 3153 3153 3153 3152 3152 3151 3151 3151 3150 3150 3149 3149 3148 3148 3147 3147 3146 3146 3146 3145 3145 3144 3144 3143 3143 3142 3142 3141 3141 3141 3141 3140 3140 3139 3139 3138 3138 3138 3137 3137 3137 3136 3136 3136 3136 3135 3135 3135 3134 3134 3133 3133 3133 3132 3132 3132 3131 3131 3131 3131
3164 3164 3164 3164 3164 3164 3164 3164 3164 3164 3164 3164 3163 3163 3163 3163 3162 3162 3162 3161 3161 3161 3160 3160 3159 3159 3159 3158 3158 3158 3157 3157 3157 3156 3156 3156 3156 3155 3155 3155 3154 3154 3153 3153 3152 3152 3152 3151 3151 3151 3150 3150 3149 3148 3148 3147 3147 3147 3146 3146 3145 3145 3144 3144 3143 3143 3142 3142 3142 3141 3141 3140 3140 3140 3139 3139 3138 3138 3137 3137 3137 3136 3136 3136 3136 3135 3135 3134 3134 3134 3133 3133 3133 3132 3132 3132 3131 3131 3131 3130 3130 3130 3129
3163 3163 3164 3164 3164 3164 3164 3164 3163 3163 3163 3163 3163 3163 3162 3162 3162 3161 3161 3161 3160 3160 3160 3159 3159 3158 3158 3158 3157 3157 3157 3156 3156 3156 3156 3155 3155 3155 3154 3154 3153 3153 3153 3152 3152 3151 3151 3151 3150 3150 3149 3149 3148 3148 3147 3147 3146 3146 3146 3145 3145 3144 3144 3143 3143 3142 3142 3141 3141 3141 3140 3140 3139 3139 3138 3138 3137 3137 3136 3136 3136 3135 3135 3135 3134 3134 3133 3133 3133 3132 3132 3132 3131 3131 3131 3131 3130 3130 3129 3129 3129 3128 3128
3163 3163 3163 3163 3163 3163 3163 3163 3163 3163 3163 3163 3162 3162 3162 3161 3161 3161 3161 3160 3160 3159 3159 3159 3158 3158 3158 3157 3157 3157 3156 3156 3156 3155 3155 3155 3154 3154 3153 3153 3153 3152 3152 3151 3151 3151 3151 3150 3150 3149 3149 3148 3148 3147 3146 3146 3146 3146 3145 3145 3144 3144 3143 3142 3142 3141 3141 3141 3140 3140 3139 3139 3138 3138 3137 3137 3136 3136 3136 3135 3135 3134 3134 3134 3133 3133 3132 3132 3132 3131 3131 3131 3130 3130 3129 3129 3129 3128 3128 3128 3127 3127 3126
3163 3163 3163 3163 3163 3163 3163 3162 3162 3162 3162 3162 3162 3161 3161 3161 3161 3160 3160 3160 3159 3159 3159 3158 3158 3158 3157 3157 3157 3156 3156 3156 3155 3155 3154 3154 3153 3153 3153 3152 3152 3152 3151 3151 3151 3150 3150 3149 3149 3148 3148 3148 3147 3146 3146 3146 3145 3145 3144 3144 3143 3143 3142 3142 3141 3141 3141 3140 3139 3139 3138 3138 3137 3137 3136 3136 3136 3135 3135 3134 3134 3133 3133 3133 3132 3132 3131 3131 3131 3130 3130 3129 3129 3129 3128 3128 3127 3127 3127 3126 3126 3126 3125
3162 3162 3162 3162 3162 3162 3162 3162 3162 3162 3162 3161 3161 3161 3161 3160 3160 3160 3159 3159 3159 3159 3158 3158 3158 3157 3157 3157 3156 3156 3156 3155 3155 3154 3154 3153 3153 3153 3152 3152 3151 3151 3151 3151 3150 3150 3149 3149 3148 3148 3147 3147 3146 3146 3145 3145 3144 3144 3143 3143 3143 3142 3142 3141 3141 3140 3140 3139 3139 3138 3138 3137 3136 3136 3136 3135 3135 3134 3134 3133 3133 3132 3132 3131 3131 3131 3130 3130 3130 3129 3129 3128 3128 3127 3127 3126 3126 3126 3126 3125 3125 3124 3124
3162 3162 3162 3162 3162 3162 3162 3162 3161 3161 3161 3161 3161 3161 3160 3160 3160 3159 3159 3159 3158 3158 3158 3157 3157 3157 3156 3156 3156 3155 3155 3155 3154 3154 3153 3153 3153 3152 3152 3151 3151 3151 3150 3150 3149 3149 3149 3148 3148 3147 3147 3146 3146 3146 3145 3144 3144 3143 3143 3142 3142 3141 3141 3140 3140 3139 3139 3138 3138 3137 3137 3136 3136 3135 3135 3134 3134 3133 3133 3132 3132 3131 3131 3131 3130 3130 3129 3129 3128 3128 3128 3127 3126 3126 3126 3125 3125 3125 3124 3124 3123 3123 3123
3162 3162 3161 3161 3161 3161 3161 3161 3161 3161 3161 3161 3161 3160 3160 3159 3159 3159 3158 3158 3158 3157 3157 3157 3156 3156 3156 3156 3155 3155 3154 3154 3154 3153 3153 3152 3152 3152 3151 3151 3151 3150 3150 3149 3149 3148 3148 3148 3147 3147 3146 3146 3146 3145 3144 3144 3143 3142 3142 3141 3141 3141 3140 3139 3139 3138 3138 3137 3137 3136 3136 3135 3135 3134 3134 3133 3133 3132 3131 3131 3131 3130 3130 3129 3129 3128 3128 3128 3127 3127 3126 3126 3126 3125 3125 3124 3124 3123 3123 3123 3122 3122 3121
3161 3161 3161 3161 3161 3161 3161 3161 3161 3161 3160 3160 3160 3160 3159 3159 3159 3158 3158 3157 3157 3157 3156 3156 3156 3155 3155 3155 3154 3154 3154 3153 3153 3153 3152 3152 3151 3151 3151 3151 3150 3150 3149 3149 3148 3148 3148 3147 3147 3146 3146 3146 3145 3144 3144 3143 3142 3142 3141 3141 3140 3140 3139 3138 3138 3137 3137 3136 3136 3136 3135 3134 3134 3133 3133 3132 3131 3131 3131 3130 3130 3129 3129 3128 3128 3127 3127 3126 3126 3126 3125 3125 3124 3124 3124 3123 3123 3122 3122 3121 3121 3121 3120
3161 3160 3160 3160 3160 3160 3160 3160 3160 3160 3160 3160 3159 3159 3159 3158 3158 3157 3157 3157 3156 3156 3156 3156 3155 3155 3154 3154 3154 3153 3153 3153 3152 3152 3152 3151 3151 3151 3150 3150 3150 3149 3149 3148 3148 3147 3147 3146 3146 3146 3145 3145 3144 3144 3143 3142 3142 3141 3141 3140 3139 3139 3138 3138 3137 3136 3136 3135 3135 3134 3134 3133 3133 3132 3132 3131 3131 3130 3130 3129 3129 3128 3128 3127 3126 3126 3126 3125 3125 3124 3124 3123 3123 3122 3122 3122 3121 3121 3121 3120 3120 3119 3119
3160 3160 3160 3160 3160 3160 3160 3160 3160 3159 3159 3159 3159 3158 3158 3157 3157 3156 3156 3156 3156 3156 3155 3155 3154 3154 3154 3153 3153 3153 3152 3152 3152 3151 3151 3151 3151 3150 3150 3149 3149 3149 3148 3148 3147 3147 3146 3146 3145 3145 3145 3144 3144 3143 3142 3142 3141 3140 3140 3139 3139 3138 3137 3137 3136 3136 3135 3134 3134 3133 3133 3132 3132 3131 3131 3130 3130 3129 3129 3128 3127 3127 3126 3126 3126 3125 3124 3124 3123 3123 3122 3122 3122 3121 3121 3120 3120 3120 3119 3119 3118 3118 3117
3159 3159 3159 3159 3159 3159 3159 3159 3159 3159 3159 3158 3158 3157 3157 3156 3156 3156 3156 3155 3155 3155 3155 3154 3154 3153 3153 3153 3152 3152 3152 3151 3151 3151 3151 3150 3150 3150 3149 3149 3149 3148 3148 3147 3147 3146 3146 3145 3145 3144 3144 3143 3143 3142 3141 3141 3140 3140 3139 3138 3138 3137 3136 3136 3135 3134 3134 3133 3133 3132 3131 3131 3131 3130 3129 3129 3128 3128 3127 3127 3126 3126 3125 3125 3124 3124 3123 3123 3122 3121 3121 3121 3120 3120 3119 3119 3118 3118 3118 3117 3117 3116 3116
3158 3158 3158 3159 3158 3158 3158 3158 3158 3158 3158 3158 3157 3156 3156 3156 3156 3155 3155 3155 3154 3154 3154 3154 3153 3153 3152 3152 3152 3152 3151 3151 3151 3151 3150 3150 3150 3149 3149 3149 3148 3148 3147 3147 3146 3146 3145 3145 3144 3144 3143 3142 3142 3141 3141 3140 3139 3138 3138 3137 3137 3136 3136 3135 3134 3133 3133 3132 3131 3131 3131 3130 3129 3129 3128 3128 3127 3127 3126 3126 3125 3125 3124 3124 3123 3123 3122 3121 3121 3121 3120 3119 3119 3118 3118 3117 3117 3116 3116 3116 3115 3115 3115
3157 3158 3158 3158 3158 3158 3158 3158 3158 3157 3157 3157 3156 3156 3156 3155 3155 3155 3154 3154 3154 3154 3153 3153 3153 3152 3152 3152 3151 3151 3151 3151 3151 3150 3150 3150 3149 3149 3149 3148 3148 3147 3147 3146 3146 3146 3145 3144 3144 3143 3142 3142 3141 3141 3140 3139 3138 3138 3137 3136 3136 3135 3134 3134 3133 3132 3131 3131 3130 3130 3129 3129 3128 3127 3127 3126 3126 3125 3125 3124 3124 3123 3123 3122 3122 3121 3121 3120 3120 3119 3119 3118 3118 3117 3116 3116 3116 3115 3115 3114 3114 3113 3113
3157 3157 3157 3157 3157 3157 3157 3157 3157 3157 3156 3156 3156 3155 3155 3154 3154 3154 3154 3153 3153 3153 3153 3152 3152 3152 3151 3151 3151 3151 3151 3151 3150 3150 3150 3150 3149 3149 3149 3148 3148 3147 3147 3146 3146 3145 3144 3144 3143 3142 3142 3141 3141 3140 3139 3139 3138 3137 3136 3135 3135 3134 3133 3132 3132 3131 3130 3130 3129 3128 3128 3127 3127 3126 3126 3125 3125 3124 3123 3123 3122 3122 3121 3121 3120 3120 3119 3119 3118 3118 3117 3117 3116 3116 3115 3115 3114 3114 3113 3113 3112 3112 3111
3156 3156 3156 3156 3156 3156 3156 3156 3156 3156 3156 3155 3155 3155 3154 3154 3154 3153 3153 3153 3152 3152 3152 3152 3152 3151 3151 3151 3151 3151 3151 3150 3150 3150 3150 3149 3149 3149 3148 3148 3147 3147 3146 3146 3145 3144 3144 3143 3142 3142 3141 3141 3140 3139 3138 3138 3137 3136 3135 3135 3134 3133 3132 3131 3131 3130 3129 3128 3128 3127 3126 3126 3126 3125 3124 3124 3123 3123 3122 3122 3121 3121 3120 3120 3119 3118 3118 3117 3117 3116 3116 3115 3115 3114 3114 3113 3113 3112 3112 3111 3111 3110 3110
3155 3155 3155 3155 3156 3156 3156 3156 3156 3155 3155 3155 3154 3154 3154 3153 3153 3153 3153 3152 3152 3152 3151 3151 3151 3151 3151 3151 3151 3150 3150 3150 3150 3150 3149 3149 3149 3148 3148 3147 3147 3146 3146 3145 3144 3144 3143 3142 3142 3141 3141 3140 3139 3138 3138 3137 3136 3135 3135 3134 3133 3132 3131 3131 3130 3129 3128 3127 3126 3126 3125 3125 3124 3124 3123 3123 3122 3121 3121 3121 3120 3119 3119 3118 3118 3117 3116 3116 3116 3115 3115 3114 3113 3113 3112 3112 3111 3111 3110 3110 3109 3109 3108
3154 3154 3154 3154 3155 3155 3155 3155 3155 3154 3154 3154 3154 3153 3153 3153 3152 3152 3152 3152 3151 3151 3151 3151 3151 3151 3151 3150 3150 3150 3150 3150 3150 3149 3149 3149 3148 3148 3147 3147 3146 3146 3145 3145 3144 3143 3142 3142 3141 3141 3140 3139 3138 3137 3137 3136 3135 3134 3134 3133 3132 3131 3130 3129 3129 3128 3127 3126 3126 3125 3124 3124 3123 3123 3122 3121 3121 3121 3120 3119 3119 3118 3118 3117 3116 3116 3115 3115 3114 3114 3113 3113 3112 3111 3111 3111 3110 3109 3109 3108 3108 3107 3107
3153 3153 3153 3154 3154 3154 3154 3154 3154 3153 3153 3153 3153 3153 3152 3152 3152 3152 3151 3151 3151 3151 3151 3151 3151 3151 3150 3150 3150 3150 3149 3149 3149 3149 3149 3148 3148 3147 3147 3147 3146 3146 3145 3144 3143 3143 3142 3141 3141 3140 3139 3138 3137 3136 3136 3135 3134 3133 3132 3131 3131 3130 3129 3128 3127 3127 3126 3125 3125 3124 3123 3123 3122 3121 3121 3121 3120 3120 3119 3118 3118 3117 3116 3116 3115 3115 3114 3114 3113 3113 3112 3111 3111 3110 3110 3109 3109 3108 3107 3107 3106 3106 3106
3152 3152 3152 3153 3153 3153 3153 3153 3153 3153 3152 3152 3152 3152 3152 3151 3151 3151 3151 3151 3151 3151 3151 3150 3150 3150 3150 3150 3149 3149 3149 3149 3149 3148 3148 3148 3147 3147 3147 3146 3146 3145 3144 3144 3143 3142 3141 3141 3140 3139 3138 3137 3136 3136 3135 3134 3133 3132 3131 3130 3130 3129 3128 3127 3126 3126 3125 3124 3124 3123 3122 3122 3121 3121 3120 3120 3119 3118 3118 3117 3117 3116 3116 3115 3114 3114 3113 3112 3112 3111 3111 3110 3110 3109 3109 3108 3107 3107 3106 3106 3105 3105 3104
3151 3151 3151 3152 3152 3152 3152 3152 3152 3152 3152 3151 3151 3151 3151 3151 3151 3151 3151 3151 3150 3150 3150 3150 3150 3150 3149 3149 3149 3149 3149 3148 3148 3148 3148 3148 3147 3147 3146 3146 3145 3145 3144 3143 3142 3142 3141 3140 3140 3139 3138 3137 3136 3135 3134 3133 3131 3131 3130 3129 3128 3127 3126 3126 3125 3124 3123 3123 3122 3121 3121 3121 3120 3120 3119 3118 3118 3117 3117 3116 3116 3115 3114 3114 3113 3112 3112 3111 3111 3110 3110 3109 3108 3108 3107 3107 3106 3106 3105 3104 3104 3103 3103
3150 3151 3151 3151 3151 3151 3151 3151 3151 3151 3151 3151 3151 3151 3150 3150 3150 3150 3150 3150 3150 3149 3149 3149 3149 3149 3149 3149 3148 3148 3148 3148 3148 3147 3147 3147 3147 3146 3146 3146 3145 3144 3144 3143 3142 3141 3141 3140 3139 3138 3137 3136 3135 3134 3133 3132 3131 3130 3129 3128 3127 3126 3126 3125 3124 3123 3122 3121 3121 3120 3120 3119 3119 3118 3117 3117 3116 3116 3116 3115 3114 3114 3113 3112 3112 3111 3111 3110 3110 3109 3108 3108 3107 3106 3106 3105 3105 3104 3103 3103 3102 3102 3101
3149 3150 3150 3150 3150 3150 3150 3150 3150 3150 3150 3150 3150 3150 3150 3150 3150 3149 3149 3149 3149 3149 3149 3148 3148 3148 3148 3148 3148 3148 3147 3147 3147 3147 3147 3147 3146 3146 3146 3145 3144 3144 3143 3142 3141 3141 3140 3139 3138 3137 3136 3136 3135 3134 3133 3132 3131 3130 3129 3128 3126 3126 3125 3124 3123 3122 3121 3120 3119 3119 3118 3117 3117 3116 3116 3116 3115 3115 3114 3114 3113 3112 3112 3111 3111 3110 3110 3109 3108 3107 3107 3106 3106 3105 3105 3104 3103 3102 3102 3101 3101 3100 3100
3148 3149 3149 3149 3149 3149 3149 3149 3149 3149 3149 3149 3149 3149 3149 3149 3149 3149 3149 3148 3148 3148 3148 3148 3148 3148 3148 3147 3147 3147 3147 3146 3146 3146 3146 3146 3146 3146 3145 3144 3144 3143 3142 3141 3141 3140 3139 3138 3137 3137 3136 3135 3134 3133 3132 3131 3131 3130 3128 3127 3126 3125 3124 3123 3122 3121 3120 3119 3118 3117 3117 3116 3116 3115 3115 3114 3114 3113 3113 3112 3112 3111 3111 3110 3110 3109 3108 3108 3107 3106 3106 3105 3104 3104 3103 3102 3101 3101 3100 3100 3099 3098 3098
3147 3147 3147 3148 3148 3148 3148 3148 3148 3148 3148 3148 3148 3148 3148 3148 3148 3148 3148 3148 3148 3147 3147 3147 3147 3147 3147 3147 3147 3146 3146 3146 3146 3146 3146 3145 3145 3145 3144 3144 3143 3142 3141 3141 3140 3139 3138 3137 3137 3136 3135 3134 3133 3132 3131 3131 3130 3129 3128 3127 3126 3125 3124 3123 3122 3121 3120 3119 3117 3116 3116 3115 3114 3114 3113 3113 3112 3112 3111 3111 3111 3110 3109 3109 3108 3108 3107 3106 3106 3105 3104 3103 3103 3102 3101 3101 3100 3099 3098 3098 3097 3096 3096
3146 3146 3146 3146 3146 3147 3147 3147 3147 3147 3147 3147 3147 3147 3147 3147 3147 3147 3147 3147 3147 3147 3147 3147 3147 3146 3146 3146 3146 3146 3146 3146 3145 3145 3145 3145 3144 3144 3144 3143 3142 3142 3141 3140 3139 3138 3137 3137 3136 3135 3134 3133 3132 3131 3131 3130 3129 3128 3127 3126 3125 3124 3123 3122 3121 3120 3119 3118 3117 3116 3115 3114 3113 3113 3112 3111 3111 3111 3110 3110 3109 3109 3108 3107 3107 3106 3106 3105 3104 3103 3103 3102 3101 3100 3100 3099 3098 3097 3096 3096 3095 3094 3093
3145 3145 3145 3145 3146 3146 3146 3146 3146 3146 3146 3146 3146 3146 3146 3146 3146 3146 3146 3146 3146 3146 3146 3146 3146 3146 3146 3146 3146 3146 3145 3145 3145 3144 3144 3144 3144 3143 3143 3142 3142 3141 3141 3140 3139 3138 3137 3136 3135 3134 3133 3132 3131 3131 3130 3129 3128 3127 3126 3125 3124 3123 3122 3121 3120 3119 3118 3117 3116 3115 3114 3113 3112 3111 3111 3110 3110 3109 3109 3108 3107 3107 3106 3106 3105 3105 3104 3103 3102 3102 3101 3100 3099 3098 3098 3097 3096 3095 3095 3094 3093 3092 3091
3144 3144 3144 3144 3144 3145 3145 3145 3145 3145 3145 3145 3145 3145 3145 3145 3145 3146 3146 3146 3146 3146 3146 3146 3146 3145 3145 3145 3145 3145 3145 3144 3144 3144 3143 3143 3143 3143 3142 3142 3141 3141 3140 3139 3138 3137 3136 3135 3134 3133 3132 3131 3130 3129 3128 3127 3127 3126 3125 3124 3123 3122 3121 3120 3119 3118 3117 3116 3115 3114 3113 3112 3111 3110 3110 3109 3108 3108 3107 3106 3106 3105 3105 3104 3104 3103 3102 3101 3101 3100 3099 3098 3097 3096 3096 3095 3094 3093 3092 3092 3091 3090 3089
3143 3143 3143 3143 3143 3144 3144 3144 3144 3144 3144 3144 3144 3144 3144 3145 3145 3145 3145 3145 3145 3145 3145 3145 3145 3145 3145 3144 3144 3144 3144 3144 3144 3143 3143 3142 3142 3142 3141 3141 3141 3140 3140 3139 3138 3136 3136 3134 3133 3132 3131 3130 3129 3128 3127 3126 3125 3125 3123 3122 3121 3121 3120 3119 3118 3117 3116 3115 3114 3113 3112 3111 3110 3109 3108 3108 3107 3106 3106 3105 3104 3104 3103 3102 3102 3101 3100 3100 3099 3098 3097 3096 3096 3095 3094 3093 3092 3091 3091 3090 3089 3088 3086
3142 3142 3142 3142 3142 3142 3143 3143 3143 3143 3143 3143 3143 3143 3143 3144 3144 3144 3144 3144 3144 3144 3144 3144 3144 3144 3144 3143 3143 3143 3143 3143 3143 3142 3142 3142 3141 3141 3141 3140 3140 3139 3139 3138 3137 3136 3135 3134 3133 3131 3131 3129 3128 3127 3126 3125 3124 3123 3122 3121 3120 3119 3119 3118 3117 3116 3115 3114 3113 3112 3111 3110 3109 3108 3107 3106 3106 3105 3104 3103 3103 3102 3101 3101 3100 3099 3098 3097 3097 3096 3095 3094 3093 3092 3091 3091 3090 3089 3088 3087 3086 3086 3085
3141 3141 3141 3141 3141 3141 3141 3142 3142 3142 3142 3142 3142 3142 3142 3142 3143 3143 3143 3143 3143 3143 3143 3143 3143 3143 3143 3143 3142 3142 3142 3142 3142 3142 3141 3141 3141 3140 3140 3139 3139 3138 3138 3137 3136 3136 3134 3133 3132 3131 3129 3128 3127 3126 3125 3124 3123 3122 3121 3120 3119 3118 3117 3116 3116 3115 3114 3113 3112 3111 3110 3109 3108 3107 3106 3105 3104 3103 3103 3102 3101 3100 3100 3099 3098 3097 3096 3096 3095 3094 3093 3092 3091 3091 3090 3089 3088 3087 3086 3085 3084 3083 3082
3139 3140 3140 3140 3140 3140 3141 3141 3141 3141 3141 3141 3141 3141 3141 3141 3141 3142 3142 3142 3142 3142 3142 3142 3142 3142 3142 3142 3141 3141 3141 3141 3141 3141 3141 3141 3140 3140 3139 3138 3138 3137 3137 3136 3135 3134 3133 3132 3131 3129 3128 3126 3125 3124 3123 3122 3121 3121 3120 3119 3118 3117 3116 3115 3114 3113 3112 3112 3111 3110 3109 3108 3107 3106 3106 3104 3103 3102 3101 3101 3100 3099 3098 3097 3096 3096 3095 3094 3093 3092 3091 3090 3089 3088 3087 3087 3086 3085 3084 3083 3082 3081 3080
3138 3138 3138 3138 3139 3139 3139 3140 3140 3140 3140 3140 3140 3140 3140 3141 3141 3141 3141 3141 3141 3141 3141 3141 3141 3141 3141 3141 3141 3141 3141 3140 3140 3140 3140 3140 3139 3139 3138 3137 3136 3136 3135 3134 3133 3132 3132 3130 3129 3128 3127 3126 3124 3123 3122 3121 3121 3120 3119 3118 3117 3116 3115 3114 3113 3112 3111 3110 3109 3108 3108 3107 3106 3105 3104 3103 3102 3101 3100 3099 3098 3097 3097 3096 3095 3094 3093 3092 3091 3090 3089 3088 3087 3086 3086 3085 3084 3083 3082 3081 3080 3079 3078
3137 3137 3137 3137 3137 3137 3138 3138 3138 3139 3139 3139 3139 3139 3139 3139 3139 3140 3140 3140 3140 3140 3140 3140 3140 3140 3140 3140 3140 3139 3139 3139 3139 3139 3139 3138 3138 3137 3137 3136 3135 3134 3133 3133 3131 3131 3130 3129 3128 3127 3126 3125 3124 3123 3122 3121 3120 3119 3117 3116 3116 3115 3114 3113 3112 3111 3110 3109 3108 3107 3106 3105 3105 3104 3103 3102 3101 3100 3099 3098 3097 3096 3095 3094 3093 3092 3091 3091 3090 3089 3088 3087 3086 3085 3084 3083 3082 3081 3080 3079 3078 3077 3076
3135 3136 3136 3136 3136 3136 3136 3137 3137 3137 3138 3138 3138 3138 3138 3138 3138 3138 3138 3139 3139 3139 3139 3139 3139 3139 3139 3139 3139 3138 3138 3138 3138 3137 3137 3137 3136 3136 3135 3135 3134 3133 3132 3131 3130 3129 3128 3128 3127 3126 3126 3125 3124 3122 3121 3120 3119 3117 3116 3115 3114 3113 3112 3111 3110 3109 3108 3107 3107 3106 3105 3104 3103 3102 3101 3101 3100 3099 3098 3097 3096 3095 3094 3093 3092 3091 3090 3089 3088 3087 3086 3085 3084 3083 3082 3081 3080 3079 3078 3077 3076 3075 3074
3134 3134 3134 3134 3134 3135 3135 3136 3136 3136 3136 3136 3137 3137 3137 3137 3137 3137 3137 3137 3137 3138 3138 3138 3138 3138 3138 3138 3137 3137 3137 3136 3136 3136 3136 3135 3135 3134 3133 3133 3132 3131 3130 3129 3129 3128 3127 3127 3126 3126 3125 3124 3123 3121 3120 3119 3118 3116 3116 3114 3113 3112 3111 3110 3109 3108 3107 3106 3105 3105 3104 3103 3102 3101 3100 3099 3098 3097 3096 3096 3095 3093 3092 3091 3090 3089 3088 3087 3086 3085 3084 3083 3082 3081 3080 3079 3078 3077 3076 3075 3074 3073 3072
3132 3132 3133 3133 3133 3133 3134 3134 3135 3135 3135 3135 3136 3136 3136 3136 3136 3136 3136 3136 3136 3136 3136 3136 3136 3136 3136 3136 3136 3136 3136 3135 3135 3135 3134 3134 3133 3133 3132 3131 3131 3130 3129 3128 3127 3127 3126 3125 3125 3124 3123 3123 3122 3121 3119 3118 3117 3116 3115 3113 3112 3111 3110 3109 3108 3107 3106 3105 3104 3103 3102 3101 3101 3100 3099 3098 3096 3096 3095 3094 3093 3092 3091 3090 3089 3087 3086 3085 3084 3083 3082 3081 3080 3079 3078 3077 3076 3075 3074 3073 3072 3071 3070
3131 3131 3131 3131 3131 3132 3132 3133 3133 3134 3134 3134 3134 3134 3135 3135 3135 3135 3135 3135 3135 3135 3135 3135 3135 3135 3135 3135 3135 3135 3135 3134 3134 3133 3133 3132 3132 3131 3131 3130 3129 3129 3128 3127 3126 3126 3125 3124 3123 3122 3121 3121 3120 3119 3118 3117 3116 3115 3114 3113 3111 3110 3109 3108 3107 3106 3105 3104 3103 3101 3101 3100 3099 3098 3097 3096 3095 3094 3093 3092 3091 3090 3089 3088 3087 3086 3085 3083 3082 3081 3080 3079 3078 3077 3076 3075 3074 3073 3072 3071 3070 3069 3068
3130 3130 3130 3130 3130 3130 3131 3131 3132 3132 3133 3133 3133 3133 3133 3133 3133 3133 3134 3134 3134 3134 3134 3134 3134 3134 3134 3134 3134 3133 3133 3133 3132 3132 3132 3131 3130 3130 3129 3128 3128 3127 3127 3126 3126 3125 3124 3123 3122 3121 3120 3119 3119 3118 3117 3116 3115 3114 3113 3112 3111 3109 3108 3107 3106 3105 3104 3102 3101 3100 3099 3098 3097 3096 3095 3094 3093 3092 3091 3090 3089 3088 3087 3086 3086 3084 3083 3082 3081 3080 3078 3077 3076 3075 3074 3073 3072 3071 3070 3069 3068 3067 3066
3128 3128 3128 3128 3129 3129 3129 3130 3131 3131 3131 3132 3132 3132 3132 3132 3132 3132 3132 3132 3132 3132 3132 3132 3132 3132 3132 3132 3132 3132 3132 3131 3131 3131 3130 3130 3129 3128 3128 3127 3126 3126 3125 3125 3124 3124 3123 3121 3121 3120 3119 3118 3117 3116 3116 3114 3113 3112 3112 3111 3110 3108 3107 3106 3104 3103 3102 3101 3100 3099 3097 3096 3095 3094 3093 3092 3091 3090 3089 3088 3087 3086 3085 3084 3083 3082 3081 3080 3079 3078 3077 3076 3075 3074 3073 3071 3071 3069 3068 3067 3066 3065 3064
3127 3127 3127 3127 3127 3127 3128 3129 3129 3130 3130 3130 3131 3131 3131 3131 3131 3131 3131 3131 3131 3131 3131 3131 3131 3131 3131 3131 3131 3131 3130 3130 3130 3129 3129 3128 3127 3127 3126 3126 3125 3124 3124 3123 3122 3122 3121 3120 3119 3118 3117 3116 3116 3115 3114 3113 3112 3111 3110 3109 3108 3107 3106 3105 3103 3102 3101 3100 3098 3097 3096 3095 3094 3092 3091 3090 3089 3088 3087 3086 3085 3084 3083 3082 3081 3080 3079 3078 3077 3076 3075 3074 3073 3072 3071 3070 3069 3068 3066 3065 3064 3063 3062
3126 3126 3126 3126 3126 3126 3126 3127 3128 3128 3128 3129 3129 3129 3130 3130 3130 3130 3130 3130 3130 3130 3130 3130 3130 3130 3130 3130 3129 3129 3129 3129 3128 3128 3127 3127 3126 3125 3125 3124 3123 3122 3122 3121 3121 3120 3119 3118 3118 3117 3116 3115 3114 3113 3113 3112 3111 3110 3108 3108 3107 3106 3105 3103 3102 3101 3100 3098 3097 3096 3095 3093 3092 3091 3090 3089 3087 3086 3086 3084 3083 3082 3081 3080 3079 3078 3077 3076 3075 3074 3073 3072 3071 3070 3069 3068 3067 3066 3065 3063 3062 3061 3060